This is the latest recevied weather packets stored in our database for station/object N5COP-13. If no packets are shown the sender has not sent any weather packets the latest 10 day(s).
| Time | Temp. | Humidity | Pressure | Rain* | Wind** | Luminosity | Snow |
|---|---|---|---|---|---|---|---|
| 1777986782 | 11.11° C | 53% | 1009.7 hPa | 0 mm | - | 91 W/m² | - |
| 1777986480 | 11.11° C | 54% | 1009.5 hPa | 0 mm | - | 87 W/m² | - |
| 1777986178 | 11.11° C | 54% | 1009.3 hPa | 0 mm | - | 73 W/m² | - |
| 1777985875 | 11.11° C | 54% | 1008.9 hPa | 0 mm | - | 64 W/m² | - |
| 1777985572 | 11.67° C | 55% | 1008.7 hPa | 0 mm | - | 57 W/m² | - |
| 1777985269 | 11.67° C | 56% | 1008.7 hPa | 0 mm | - | 55 W/m² | - |
| 1777984965 | 11.67° C | 56% | 1008.8 hPa | 0 mm | - | 42 W/m² | - |
| 1777984661 | 11.67° C | 57% | 1008.6 hPa | 0 mm | - | 33 W/m² | - |
| 1777984358 | 11.67° C | 57% | 1008.7 hPa | 0 mm | - | 25 W/m² | - |
| 1777984054 | 11.67° C | 57% | 1008.6 hPa | 0 mm | - | 21 W/m² | - |
| 1777983752 | 11.67° C | 57% | 1008.7 hPa | 0 mm | - | 22 W/m² | - |
| 1777983448 | 11.67° C | 57% | 1008.5 hPa | 0 mm | - | 21 W/m² | - |
| 1777983145 | 11.67° C | 57% | 1008.5 hPa | 0 mm | - | 11 W/m² | - |
| 1777982841 | 11.67° C | 56% | 1008.5 hPa | 0 mm | - | 7 W/m² | - |
| 1777982537 | 11.67° C | 57% | 1008 hPa | 0 mm | - | 4 W/m² | - |
| 1777982236 | 11.67° C | 57% | 1008 hPa | 0 mm | - | 2 W/m² | - |
| 1777981934 | 11.67° C | 57% | 1008 hPa | 0 mm | - | 1 W/m² | - |
| 1777981631 | 12.22° C | 57% | 1008.2 hPa | 0 mm | - | 0 W/m² | - |
| 1777981327 | 12.22° C | 57% | 1008.2 hPa | 0 mm | - | 0 W/m² | - |
| 1777981024 | 12.22° C | 57% | 1008.2 hPa | 0 mm | - | 0 W/m² | - |
| 1777980721 | 12.22° C | 57% | 1008 hPa | 0 mm | - | 0 W/m² | - |
| 1777980417 | 12.78° C | 57% | 1007.9 hPa | 0 mm | - | 0 W/m² | - |
| 1777980115 | 12.78° C | 57% | 1007.8 hPa | 0 mm | - | 0 W/m² | - |
| 1777979814 | 12.78° C | 57% | 1008.3 hPa | 0 mm | - | 0 W/m² | - |
| 1777979510 | 13.33° C | 57% | 1008 hPa | 0 mm | - | 0 W/m² | - |
* Rain latest hour (hover to see other rain measurements)
** Current wind speed in m/s (hover to see current wind gust speed)